Thunder radar more information blitzortung!


Rain radar more information rain snow radar


Equipment we use:

Davis VP2

Weather Display

BareMetal


Weather Underground History page Text

Daily Summary for December 11, 2018 Units:  Metric    English   Both
« Previous Day
Next Day »
Daily Weekly Monthly Yearly Custom
  Current: High: Low: Average:
Temperature: -13.2 °C -17.8 °C -14.3 °C -14.1 °C
Dew Point: -14.1 °C -17.8 °C -14.7 °C -14.5 °C
Humidity: 89 % Humidity % 89 % 92 %
Wind Speed: 56.6 km/h 0 km/h 15 km/h 28.5 km/h
Wind Gust: 32.8 km/h 0 km/h - -
Wind:ESE - - ENE
Pressure: 34381.4 hPa 0 hPa 34381.4 hPa -
Precipitation: 20.32 mm      
Historical Graphs
 
 
Tabular Data for December 11, 2018
Time Temperature Dew Point Pressure Wind Wind Speed Wind Gust Humidity Rainfall Rate (Hourly)
-17.8 °C -17.8 °C 0 hPa Calm     Humidity % 0 mm
00:04 -14.3 °C -14.7 °C 34489.8 hPa NE 26.9 km/h 14.8 km/h 96 % 35.56 mm
00:09 -14.3 °C -14.7 °C 34486.4 hPa NNE 20.9 km/h 13.7 km/h 96 % 35.56 mm
00:14 -14.3 °C -14.6 °C 34486.4 hPa ENE 29.8 km/h 19.2 km/h 96 % 35.56 mm
00:19 -14.3 °C -14.6 °C 34483 hPa NE 15.6 km/h 9.3 km/h 96 % 30.48 mm
00:25 -14.3 °C -14.6 °C 34479.6 hPa NE 20.9 km/h 12.4 km/h 96 % 25.4 mm
00:29 -14.3 °C -14.6 °C 34469.5 hPa ENE 26.9 km/h 15 km/h 96 % 20.32 mm
00:35 -14.3 °C -14.6 °C 34466.1 hPa NE 26.9 km/h 11.4 km/h 96 % 15.24 mm
00:39 -14.3 °C -14.6 °C 34455.9 hPa ENE 29.8 km/h 16.1 km/h 96 % 15.24 mm
00:44 -14.2 °C -14.6 °C 34455.9 hPa ESE 20.9 km/h 9.3 km/h 96 % 15.24 mm
00:50 -14.2 °C -14.6 °C 34452.6 hPa ENE 26.9 km/h 14.2 km/h 96 % 10.16 mm
00:54 -14.2 °C -14.6 °C 34449.2 hPa ENE 23.8 km/h 9.8 km/h 96 % 10.16 mm
00:59 -14.2 °C -14.6 °C 34445.8 hPa ENE 26.9 km/h 12.2 km/h 96 % 10.16 mm
01:04 -14.2 °C -14.6 °C 34449.2 hPa NE 20.9 km/h 11.9 km/h 96 % 10.16 mm
01:09 -14.3 °C -14.6 °C 34445.8 hPa ENE 20.9 km/h 12.9 km/h 96 % 15.24 mm
01:15 -14.3 °C -14.6 °C 34442.4 hPa ENE 20.9 km/h 15.3 km/h 96 % 10.16 mm
01:19 -14.3 °C -14.6 °C 34439 hPa NE 20.9 km/h 13.5 km/h 96 % 10.16 mm
01:24 -14.2 °C -14.6 °C 34435.6 hPa ENE 26.9 km/h 16.1 km/h 96 % 10.16 mm
01:29 -14.1 °C -14.5 °C 34428.8 hPa ENE 20.9 km/h 15.6 km/h 96 % 10.16 mm
01:34 -14.1 °C -14.5 °C 34422.1 hPa ENE 29.8 km/h 13.5 km/h 95 % 10.16 mm
01:39 -14.1 °C -14.5 °C 34415.3 hPa ENE 26.9 km/h 12.9 km/h 95 % 10.16 mm
01:44 -14.1 °C -14.5 °C 34411.9 hPa ENE 33.6 km/h 20.8 km/h 95 % 5.08 mm
01:50 -14.1 °C -14.5 °C 34411.9 hPa ENE 29.8 km/h 16.3 km/h 95 % 5.08 mm
01:55 -14.1 °C -14.5 °C 34408.5 hPa East 17.9 km/h 11.4 km/h 95 % 5.08 mm
01:59 -14.1 °C -14.5 °C 34405.1 hPa East 29.8 km/h 17.9 km/h 95 % 5.08 mm
02:05 -14 °C -14.4 °C 34405.1 hPa NE 29.8 km/h 14.5 km/h 95 % 0 mm
02:09 -13.7 °C -14.1 °C 34401.8 hPa ESE 29.8 km/h 20.4 km/h 95 % 0 mm
02:14 -13.5 °C -14.1 °C 34401.8 hPa ESE 32.8 km/h 15.3 km/h 93 % 0 mm
02:20 -13.5 °C -14.2 °C 34398.4 hPa ENE 15 km/h 9.3 km/h 92 % 0 mm
02:24 -13.5 °C -14.2 °C 34398.4 hPa SSE 29.8 km/h 30.3 km/h 92 % 0 mm
02:29 -13.2 °C -14 °C 34398.4 hPa SE 50.7 km/h 23 km/h 91 % 0 mm
02:34 -13.2 °C -14.1 °C 34395 hPa ESE 38.8 km/h 32.7 km/h 90 % 0 mm
02:39 -13.2 °C -14.1 °C 34391.6 hPa ESE 59.5 km/h 33.2 km/h 89 % 0 mm
02:44 -13.2 °C -14.1 °C 34388.2 hPa SE 50.7 km/h 26.7 km/h 89 % 0 mm
02:49 -13.2 °C -14.1 °C 34388.2 hPa SE 38.8 km/h 29.8 km/h 89 % 0 mm
02:54 -13.2 °C -14.1 °C 34381.4 hPa ESE 56.6 km/h 32.8 km/h 89 % 5.08 mm
Ladner Weather
Compliments of Weather Underground - 1.75 mb

Script developed by  Jim McMurry - jmcmurry@mwt.net Adapted for the template by  Wim van der Kuil - Leuven-Template.eu